星链-4720 (STARLINK-4720 )

导读 | 豆包AI

STARLINK-4720是美国SpaceX公司星链(Starlink)卫星互联网星座中的一员,于2022年9月11日发射。星链项目旨在为全球偏远地区、传统网络覆盖不足区域提供高速卫星互联网接入服务,截至2024年6月,星链星座已部署超过6000颗卫星,占全球 active卫星总数一半以上,拥有超三百万用户,还在开展蜂窝通信测试及军事通信部署。

基本信息
目录编号:
53800
目录名称:
STARLINK-4720
国际标识:
2022-111AD
轨道中心:
EARTH
卫星名称:
星链-4720
卫星全名:
星链-4720 (STARLINK-4720 )
卫星状态:
在轨 (已飞行1281 天)
发射日期:
2022-09-11 UTC
国别 :
美国 (US)
星等 :
--
轨道信息
数据来源 国际轨道数据
星历时间: 2026-03-15T00:10:59+0800
15小时前
查看轨道信息
半长轴: 6785.144km
偏心率: 0.0002549
轨道倾角: 53.210°
近地点辐角 162.306°
升交点赤经 215.984°
平近点角 197.804°
近地点: 405.277km
远地点: 408.737km
周期: 92.704分钟
每日圈数: 15.533318
详细信息
固有亮度:
5
最大亮度:
2.5
卫星平台:
Starlink v1.5
覆盖范围:
全球
运营商:
太空探索技术公司
运营商所在国:
美国
制造商(研发单位):
太空探索技术公司
制造商所在国:
美国
使用方式:
暂无
卫星简介
星链(Starlink)计划是由太空探索技术公司(SpaceX)提出的一个巨型低轨卫星互联网星座项目,计划在2019年至2024年间在太空搭建由约1.2万颗卫星组成的“星链”网络,其中1584颗将部署在地球上空550千米处的近地轨道,并从2020年开始工作。该卫星仍在工作。
2D轨道图
3D轨道图
轨道高度分析图
轨道倾角分析图
轨道综合分析图
查看轨道综合分析图